Location: Larroque
(43.9715°N, 0.2759°E)
Time: 23:50:20
(UTC+00:00)

Daily predictions for brighter satellites

Satellite Brightness Start Highest point End
(mag) Time Altitude Azimuth Time Altitude Azimuth Time Altitude Azimuth
Cosmos 1300 Rocket 4.1 18:14:34 10° SSE 18:18:37 36° E 18:22:41 10° NNE
Sich 1 Rocket 3.6 18:18:24 10° S 18:22:52 66° E 18:27:24 10° NNE
NOSS 2-2 (E) 4.4 18:20:15 10° WSW 18:23:36 42° NW 18:27:24 10° NNE
Cosmos 1943 4.3 18:18:26 10° NW 18:23:51 48° WSW 18:29:16 10° S
Cosmos 2298 Rocket 4.2 18:19:42 10° S 18:24:51 52° ESE 18:30:02 10° NNE
CENTAUR R/B 3.5 18:17:45 10° NNW 18:25:26 49° NE 18:33:51 10° ESE
Cosmos 1975 4.0 18:22:12 10° SSW 18:26:09 49° WNW 18:30:07 10° N
Iridium 4 Rocket 4.0 18:22:08 10° S 18:27:15 73° W 18:32:53 10° N
Cosmos 1437 4.2 18:24:38 10° NNW 18:27:29 40° W 18:30:18 10° SSW
CSL-04 Debris 4.3 18:24:28 10° SE 18:29:41 53° ENE 18:34:55 10° N
Helios 1A Rocket 3.6 18:27:23 10° S 18:31:27 61° WSW 18:35:34 10° NNW
CSL-04 Rocket 3.9 18:26:23 10° SE 18:31:38 52° ENE 18:36:59 10° N
ATLAS 2AS CENTAUR R/B 3.7 18:26:08 10° SSE 18:32:45 30° ESE 18:39:23 10° NE
Okean 2 Rocket 3.2 18:28:44 10° S 18:33:06 54° E 18:37:27 10° NNE
NOSS 2-2 (D) 4.4 18:30:07 10° WSW 18:33:27 42° NW 18:37:11 10° NNE
YAOGAN 1 2.5 18:29:53 10° SSE 18:34:11 75° ENE 18:38:32 10° N
Cosmos 1025 Rocket 3.3 18:30:56 10° N 18:35:12 48° ENE 18:39:26 10° SSE
ATLAS 3B R/B 4.0 18:31:48 10° NNW 18:37:13 24° NNE 18:42:35 11° E
Abrixas rocket 2.6 18:37:22 10° WNW 18:40:06 41° NNE 18:42:11 15° E
Cosmos 1513 Rocket 4.5 18:34:23 10° S 18:40:35 69° E 18:46:42 10° NNE
CREW DRAGON DEMO-1 DEB 3.8 18:39:23 10° NW 18:42:12 34° NNE 18:44:16 15° E
Cosmos 1536 Rocket 3.9 18:40:40 10° N 18:44:59 45° ENE 18:49:16 10° SSE
Cosmos 1125 Rocket 3.7 18:40:25 10° S 18:45:30 49° ESE 18:50:37 10° NNE
SJ-6B 4.3 18:48:32 16° E 18:49:42 18° ENE 18:52:19 10° NNE
CZ-4 R/B 2.2 18:47:40 10° S 18:51:48 57° W 18:55:56 10° NNW
Cosmos 2150 Rocket 4.0 18:47:00 10° SSW 18:52:23 84° ESE 18:57:52 10° NNE
SJ-11-01 4.2 18:48:10 10° SSE 18:52:51 70° ENE 18:57:32 10° N
CZ-2C R/B 3.2 18:48:31 10° SSE 18:53:52 88° ENE 18:59:32 10° NNW
Cosmos 1464 Rocket 3.9 18:47:47 10° S 18:53:55 83° E 19:00:09 10° N
USA 238 DEB 3.9 18:47:41 10° NW 18:54:57 84° NE 19:02:30 10° SE
USA 238 3.9 18:47:47 10° NW 18:55:04 84° NE 19:02:37 10° SE
Okean-O 3.8 18:51:24 10° S 18:55:40 47° W 18:59:58 10° NNW
Cosmos 2285 Rocket 4.1 18:50:08 10° S 18:56:10 51° ESE 19:02:17 10° NNE
Cosmos 1674 3.2 18:53:43 10° N 18:57:20 38° ENE 19:00:17 14° SE
Cosmos 1092 Rocket 4.4 18:52:35 10° N 18:58:20 39° ENE 19:04:05 10° SE
MOS 1 Rocket 3.0 18:59:49 10° NNE 19:04:11 67° ESE 19:08:25 10° S
TSX-5 4.4 19:03:58 10° S 19:07:24 36° ESE 19:11:41 10° NE
ARGOS 3.1 19:04:10 10° SSE 19:09:29 71° ENE 19:14:52 10° N
In-Cosmos 22 4.3 19:06:18 10° NNW 19:11:36 73° W 19:17:00 10° S
Cosmos 1048 Rocket 4.2 19:07:23 10° NNW 19:12:44 78° WSW 19:18:05 10° SSE
CZ-2C R/B 3.1 19:09:11 10° NNE 19:14:29 42° E 19:19:46 10° SSE
Cosmos 1733 3.8 19:13:47 27° SE 19:15:03 34° E 19:18:32 10° NNE
Cosmos 2151 Rocket 3.8 19:11:18 10° SSW 19:15:44 75° W 19:20:16 10° N
HJ-1C 4.0 19:13:16 10° S 19:16:30 57° W 19:19:46 10° NNW
Lacrosse 5 rocket 3.8 19:15:18 10° NNW 19:17:59 16° N 19:20:43 10° NE
NOSS 3-2 (A) 4.4 19:11:50 10° NW 19:19:25 70° WSW 19:27:54 10° SSE
Cosmos 2082 Rocket 3.8 19:16:16 10° N 19:20:00 18° NE 19:21:17 17° ENE
Shenzhou-11 Module 3.3 19:19:37 10° SW 19:20:33 20° SW 19:20:33 20° SW
BREEZE-M DEB (TANK) 3.2 19:19:05 10° WNW 19:22:16 70° SSW 19:27:36 21° SE
BREEZE-M R/B 4.3 19:09:36 10° WSW 19:22:20 78° NNW 19:24:25 24° ENE
DMSP B5D2-2 4.4 19:19:16 10° NNE 19:24:19 43° E 19:29:18 10° S
Cosmos 494 Rocket 4.0 19:20:14 10° NNW 19:25:32 89° ENE 19:29:53 15° SSE
Meteor 1-15 Rocket 4.2 19:20:45 10° S 19:26:23 86° E 19:32:10 10° NNE
Cosmos 1805 3.1 19:23:00 10° S 19:26:53 71° E 19:30:48 10° NNE
ATLAS 5 CENTAUR R/B 4.5 19:23:28 10° WNW 19:27:04 32° SW 19:36:51 10° SSE
OBJECT-B 2.8 19:28:48 17° NNE 19:28:48 17° NNE 19:30:00 10° NNE
Milstar 3 Cent rocket 3.9 19:26:06 10° SW 19:30:48 18° S 19:32:39 15° SSE
Ariane Rocket 2.9 19:28:06 22° SSE 19:31:22 66° ENE 19:36:25 10° N
SL-08 RB Rocket 3.6 19:27:52 17° SSE 19:31:25 82° ENE 19:35:58 10° N
H-2A R/B 2.7 19:27:58 10° S 19:32:50 54° W 19:37:52 10° NNW
USA 234 4.3 19:38:13 24° SE 19:38:13 24° SE 19:42:11 10° S
Cosmos 1269 Rocket 4.0 19:32:10 10° NNW 19:37:29 64° ENE 19:39:33 36° SE
Nadezhda 4 Rocket 4.3 19:32:48 10° NNW 19:38:53 66° W 19:44:56 10° S
KORONAS-FOTON 4.1 19:34:59 10° NNW 19:38:54 68° W 19:41:31 20° S
Cosmos 1626 2.5 19:39:01 10° N 19:42:02 46° NE 19:42:02 46° NE
MetOp-A 4.1 19:40:20 31° SE 19:42:53 68° ENE 19:48:14 10° N
USA 186 1.9 19:42:34 61° SSW 19:42:58 71° W 19:46:14 10° NNW
Cosmos 1844 Rocket 3.9 19:40:08 10° SW 19:45:25 43° WNW 19:50:46 10° NNE
COSMOS 2406 3.4 19:41:02 10° NNW 19:46:36 54° ENE 19:47:55 44° ESE
ISS -1.8 19:44:27 10° WNW 19:47:09 22° N 19:47:46 21° NNE
Cosmos 2278 Rocket 3.1 19:44:09 10° S 19:51:32 31° ENE 19:54:47 10° NE
IRS-1A Rocket 4.4 19:47:48 19° SSE 19:52:10 84° WSW 19:58:02 10° NNW
Lacrosse 4 Rocket 3.1 19:50:37 10° N 19:52:52 20° NNE 19:52:52 20° NNE
Meteor 1-22 Rocket 4.2 19:48:23 10° S 19:54:14 75° E 20:00:19 10° NNE
Meteor 2-5 Rocket 3.8 19:51:27 10° NNW 19:57:10 81° W 20:00:46 24° S
Exosat Rocket 4.2 19:52:11 10° SW 19:57:30 54° WNW 20:02:25 10° NNE
NOSS 3-2 (C) 4.4 19:50:07 10° NW 19:57:42 64° WSW 20:03:38 21° SSE
Okean 1 Rocket 3.8 19:55:06 10° SSW 19:59:29 55° W 20:03:56 10° N
Meteor 1-24 Rocket 3.6 19:53:53 10° N 19:59:30 82° E 20:01:37 41° SSE
NOSS 3-4 (A) 3.4 19:54:38 10° SW 20:00:32 80° NW 20:06:51 10° NE
NOSS 3-4 (C) 3.4 19:54:44 10° SW 20:00:38 80° NW 20:06:58 10° NE
Resurs 01 Rocket 2.7 20:03:26 33° NNE 20:03:26 33° NNE 20:06:20 10° N
SL-14 R/B 3.6 19:58:40 10° N 20:01:55 58° N 20:01:55 58° N
Cosmos 1766 4.3 20:04:57 10° SSW 20:08:43 44° WNW 20:12:32 10° N
Cosmos 1833 Rocket 2.6 20:06:06 10° NNW 20:11:44 62° ENE 20:11:54 62° ENE
Cosmos 2251 Rocket 4.4 20:09:35 10° N 20:13:44 37° NE 20:13:44 37° NE
CENTAUR R/B 3.8 20:08:30 10° NW 20:16:29 54° WSW 20:22:00 23° S
SPOT 3 Rocket 3.4 20:20:50 83° NE 20:20:50 83° NE 20:25:54 10° NNW
Cosmos 1634 Rocket 4.3 20:16:38 10° SSW 20:22:43 65° W 20:28:55 10° N
ATLAS 2AS CENTAUR R/B 3.2 20:15:18 10° SW 20:23:14 71° NW 20:31:08 10° NE
SJ-6B 4.2 20:24:09 33° W 20:24:09 33° W 20:27:35 10° NNW
Resurs 1-3 4.2 20:26:17 56° NW 20:26:17 56° NW 20:29:51 10° NNW
ATLAS 3B R/B 2.6 20:22:04 10° NW 20:28:58 78° NE 20:29:50 69° ESE
Cosmos 1892 Rocket 4.4 20:25:25 10° NNW 20:28:35 46° NNW 20:28:35 46° NNW
Cosmos 1655 Rocket 4.0 20:32:12 10° N 20:37:50 66° NE 20:37:50 66° NE
CZ-2C R/B 4.5 20:49:47 10° N 20:54:34 30° WNW 20:59:22 10° SW
Lacrosse 5 rocket 3.7 20:54:18 10° NW 20:56:20 22° NNW 20:56:20 22° NNW
Cosmos 2098 Rocket 4.3 20:56:18 10° N 21:01:46 59° NNW 21:01:46 59° NNW
Cosmos 2082 Rocket 3.0 20:59:13 10° NNW 21:03:08 47° NNW 21:03:08 47° NNW
Terra 4.4 21:21:44 13° N 21:21:44 13° N 21:22:18 10° N
Cosmos 2278 Rocket 3.8 21:33:01 30° WNW 21:33:40 31° NW 21:38:40 10° N
Resurs 01 Rocket 4.5 21:41:01 14° WNW 21:41:01 14° WNW 21:42:06 10° NW
